Regional Weather Roundup
Issued by NWS Charleston, WV

Home | Current Version | Previous Version | Graphics & Text | Print | Product List | Glossary On
Versions: 1 2 3 4 5 6 7 8 9 10 11 12 13 14 15 16 17 18 19 20 21 22 23 24 25 26 27 28 29 30 31 32 33 34 35 36 37 38 39 40 41 42 43 44 45 46 47 48 49 50
000
ASUS41 KRLX 120010
RWRRLX
West Virginia Regional Weather Roundup
National Weather Service Charleston WV
700 PM EST THU FEB 11 2016

Note: "fair" indicates few or no clouds below 12,000 feet with no
significant weather and/or obstructions to visibility.

WVZ003-120100-
Northern Panhandle of West Virginia

CITY           SKY/WX    TMP DP  RH WIND       PRES   REMARKS
WHEELING       CLOUDY    16   2  54 NW8       30.25R WCI   5
$$

WVZ009-120100-
Northwest West Virginia

CITY           SKY/WX    TMP DP  RH WIND       PRES   REMARKS
PARKERSBURG    MOCLDY    19   4  51 W6        30.33R
$$

WVZ006-120100-
Western West Virginia

CITY           SKY/WX    TMP DP  RH WIND       PRES   REMARKS
HUNTINGTON       N/A     23   5  46 N6        30.30R
$$

WVZ015-120100-
West Central West Virginia

CITY           SKY/WX    TMP DP  RH WIND       PRES   REMARKS
CHARLESTON       N/A     21   4  47 N5        30.29R
$$

WVZ022-031-120100-
North Central West Virginia

CITY           SKY/WX    TMP DP  RH WIND       PRES   REMARKS
CLARKSBURG     CLOUDY    17   4  56 W5        30.26R WCI  10
MORGANTOWN     CLOUDY    17   2  51 VRB5      30.25R WCI  10
$$

WVZ025-035-042-045-120100-
Southern West Virginia

CITY           SKY/WX    TMP DP  RH WIND       PRES   REMARKS
BECKLEY          N/A     16   3  56 N7        30.16R WCI   6
LOGAN            N/A     21   5  49 CALM      30.22R
BLUEFIELD        N/A     18   2  49 NW7       30.13R WCI   9
LEWISBURG        N/A     19   3  51 CALM      30.17R
$$

WVZ047-120100-
Northern Mountains of West Virginia

CITY           SKY/WX    TMP DP  RH WIND       PRES   REMARKS
ELKINS         CLOUDY    12   1  61 CALM      30.19R
$$

WVZ052-120100-
Eastern Panhandle of West Virginia

CITY           SKY/WX    TMP DP  RH WIND       PRES   REMARKS
MARTINSBURG    CLOUDY    20   0  41 W10       30.25R WCI   9
PETERSBURG     MOCLDY    19   2  47 CALM      30.26R
$$



USA.gov is the U.S. government's official web portal to all federal, state and local government web resources and services.